Date String (YYYY-MM-DD hh:mm:ss) UTC,Instrument flags,absolute air pressure of the measurement (hPa),sample flow rate (lpm),inlet stack bypass flow (lpm),air temperature of the measurement (°C),ambient temperature measured by the external sensor (°C),aerosol sample conditioner tube jacket temperature (°C),OPC LED temperature (°C),internal box temperature (°C),relative humidity of the measurement (%),span deviation,mass concentration of particles derived from Lorenz-Mie calculation of OPC scattering (μg/m³),mass concentration of particles derived from Lorenz-Mie calculation of OPC scattering (μg/m³),mass concentration of particles derived from Lorenz-Mie calculation of OPC scattering (μg/m³)
DateTimeUTC,F1_M11,P_M11,Q1_M11,Q2_M11,T1_M11,T2_M11,T3_M11,T4_M11,T5_M11,U1_M11,ZSPAN_M11,X0_M11,X2_M11,X1_M11
2023-11-07 09:00:00,SystemResetWarning,0822.7,5.00,000.00,027.9,026.8,000.0,036.3,029.3,8.4,0000.0,0006.23,0002.91,0002.26
2023-11-07 09:01:00,SystemResetWarning,0822.5,5.00,000.00,027.9,026.8,000.0,036.3,029.3,8.3,0000.0,0006.11,0002.88,0002.26
2023-11-07 09:02:00,SystemResetWarning,0822.6,5.00,000.00,027.9,026.8,000.0,036.3,029.3,8.5,0000.0,0007.12,0002.86,0002.23
2023-11-07 09:03:00,SystemResetWarning,0822.6,5.00,000.00,027.9,026.8,000.0,036.3,029.3,8.7,0000.0,0007.57,0002.88,0002.22
2023-11-07 09:04:00,SystemResetWarning,0822.8,4.99,000.00,027.9,026.8,000.0,036.3,029.3,8.5,0000.0,0007.26,0002.83,0002.21
2023-11-07 09:05:00,SystemResetWarning,0822.6,5.00,000.00,027.9,026.8,000.0,036.3,029.3,8.6,0000.0,0006.46,0002.78,0002.20
2023-11-07 09:06:00,SystemResetWarning,0822.6,4.99,000.00,027.9,026.8,000.0,036.3,029.3,8.5,0000.0,0006.45,0002.75,0002.20
2023-11-07 09:07:00,SystemResetWarning,0822.6,5.01,000.00,027.9,026.8,000.0,036.3,029.3,8.5,0000.0,0006.32,0002.68,0002.18
2023-11-07 09:08:00,SystemResetWarning,0822.7,5.01,000.00,027.9,026.8,000.0,036.3,029.3,8.4,0000.0,0006.50,0002.69,0002.17
2023-11-07 09:09:00,SystemResetWarning,0822.6,5.01,000.00,027.9,026.8,000.0,036.3,029.3,8.3,0000.0,0006.73,0002.74,0002.19
2023-11-07 09:10:00,SystemResetWarning,0822.7,5.00,000.00,027.9,026.8,000.0,036.3,029.3,8.3,0000.0,0007.13,0002.80,0002.19
2023-11-07 09:11:00,SystemResetWarning,0823.0,4.99,000.00,027.9,026.9,000.0,036.3,029.3,8.3,0000.0,0007.64,0002.82,0002.20
2023-11-07 09:12:00,SystemResetWarning,0822.8,4.99,000.00,027.9,026.9,000.0,036.3,029.4,8.3,0000.0,0007.62,0002.81,0002.20
2023-11-07 09:13:00,SystemResetWarning,0822.7,5.00,000.00,027.9,026.9,000.0,036.3,029.3,8.3,0000.0,0006.88,0002.85,0002.22
2023-11-07 09:14:00,SystemResetWarning,0822.7,5.01,000.00,027.9,026.9,000.0,036.3,029.3,8.3,0000.0,0006.66,0002.83,0002.24
2023-11-07 09:15:00,SystemResetWarning,0822.7,5.00,000.00,027.9,026.9,000.0,036.3,029.4,8.3,0000.0,0006.68,0002.85,0002.24
2023-11-07 09:16:00,SystemResetWarning,0822.7,4.99,000.00,027.9,026.9,000.0,036.3,029.4,8.4,0000.0,0006.80,0002.92,0002.26
2023-11-07 09:17:00,SystemResetWarning,0822.6,4.99,000.00,027.9,027.0,000.0,036.3,029.4,8.4,0000.0,0006.31,0002.92,0002.27
2023-11-07 09:18:00,SystemResetWarning,0822.6,5.00,000.00,027.9,027.0,000.0,036.3,029.4,8.4,0000.0,0007.04,0002.98,0002.29
2023-11-07 09:19:00,SystemResetWarning,0822.7,5.00,000.00,028.0,027.0,000.0,036.3,029.4,8.4,0000.0,0007.22,0002.98,0002.31
2023-11-07 09:20:00,SystemResetWarning,0822.8,5.00,000.00,028.0,027.0,000.0,036.3,029.4,8.5,0000.0,0007.70,0002.96,0002.29
2023-11-07 09:21:00,SystemResetWarning,0823.1,5.00,000.00,028.0,027.0,000.0,036.3,029.4,8.5,0000.0,0007.59,0002.95,0002.30
2023-11-07 09:22:00,SystemResetWarning,0822.8,5.00,000.00,028.0,027.0,000.0,036.3,029.4,8.4,0000.0,0007.33,0003.02,0002.31
2023-11-07 09:23:00,SystemResetWarning,0822.7,5.01,000.00,028.0,027.0,000.0,036.3,029.4,8.4,0000.0,0007.68,0003.04,0002.33
2023-11-07 09:24:00,SystemResetWarning,0822.7,5.00,000.00,028.0,027.0,000.0,036.3,029.4,8.4,0000.0,0007.58,0003.04,0002.31
2023-11-07 09:25:00,SystemResetWarning,0822.9,4.99,000.00,028.0,027.0,000.0,036.4,029.4,8.4,0000.0,0007.45,0003.05,0002.31
2023-11-07 09:26:00,SystemResetWarning,0822.8,5.00,000.00,028.0,027.0,000.0,036.4,029.4,8.4,0000.0,0007.47,0003.09,0002.31
2023-11-07 09:27:00,SystemResetWarning,0823.0,4.99,000.00,028.0,027.0,000.0,036.4,029.4,8.4,0000.0,0007.46,0003.05,0002.32
2023-11-07 09:28:00,SystemResetWarning,0823.1,5.00,000.00,028.0,027.0,000.0,036.4,029.4,8.4,0000.0,0007.93,0003.08,0002.33
2023-11-07 09:29:00,SystemResetWarning,0822.9,5.00,000.00,028.0,027.0,000.0,036.4,029.4,8.4,0000.0,0007.60,0003.07,0002.34
2023-11-07 09:30:00,SystemResetWarning,0822.9,5.00,000.00,028.0,027.0,000.0,036.4,029.4,8.6,0000.0,0007.50,0003.08,0002.34
2023-11-07 09:31:00,SystemResetWarning,0822.8,5.00,000.00,028.0,027.0,000.0,036.4,029.4,8.5,0000.0,0007.82,0003.09,0002.37
2023-11-07 09:32:00,SystemResetWarning,0823.3,5.00,000.00,028.0,027.0,000.0,036.4,029.4,8.5,0000.0,0008.17,0003.05,0002.37
2023-11-07 09:33:00,SystemResetWarning,0822.9,5.00,000.00,028.0,027.0,000.0,036.4,029.4,8.4,0000.0,0009.13,0003.03,0002.37
2023-11-07 09:34:00,SystemResetWarning,0822.8,5.00,000.00,028.0,027.0,000.0,036.4,029.4,8.4,0000.0,0009.02,0003.02,0002.36
2023-11-07 09:35:00,SystemResetWarning,0822.8,5.00,000.00,028.0,027.0,000.0,036.4,029.5,8.4,0000.0,0009.02,0003.03,0002.37
2023-11-07 09:36:00,SystemResetWarning,0822.8,5.00,000.00,028.0,027.1,000.0,036.4,029.4,8.4,0000.0,0009.16,0003.05,0002.39
2023-11-07 09:37:00,SystemResetWarning,0822.7,5.00,000.00,028.0,027.1,000.0,036.4,029.5,8.4,0000.0,0009.25,0003.03,0002.40
2023-11-07 09:38:00,SystemResetWarning,0822.9,5.00,000.00,028.0,027.1,000.0,036.4,029.5,8.4,0000.0,0009.47,0003.08,0002.41
2023-11-07 09:39:00,SystemResetWarning,0822.7,5.01,000.00,028.0,027.1,000.0,036.4,029.5,8.4,0000.0,0009.92,0003.08,0002.41
2023-11-07 09:40:00,SystemResetWarning,0822.9,4.99,000.00,028.0,027.1,000.0,036.4,029.5,8.4,0000.0,0009.72,0003.09,0002.42
2023-11-07 09:41:00,SystemResetWarning,0823.0,5.00,000.00,028.0,027.1,000.0,036.4,029.4,8.5,0000.0,0009.74,0003.11,0002.43
2023-11-07 09:42:00,SystemResetWarning,0822.7,4.99,000.00,028.0,027.1,000.0,036.4,029.4,8.6,0000.0,0008.97,0003.11,0002.43
2023-11-07 09:43:00,SystemResetWarning,0822.7,5.00,000.00,028.0,027.1,000.0,036.4,029.4,8.5,0000.0,0008.69,0003.15,0002.45
2023-11-07 09:44:00,SystemResetWarning,0822.8,5.00,000.00,028.0,027.1,000.0,036.4,029.4,8.5,0000.0,0007.62,0003.14,0002.46
2023-11-07 09:45:00,SystemResetWarning,0822.7,5.01,000.00,028.1,027.1,000.0,036.4,029.4,8.5,0000.0,0007.23,0003.13,0002.45
2023-11-07 09:46:00,SystemResetWarning,0822.9,5.00,000.00,028.1,027.1,000.0,036.4,029.4,8.5,0000.0,0007.28,0003.14,0002.47
2023-11-07 09:47:00,SystemResetWarning,0822.9,5.00,000.00,028.1,027.1,000.0,036.4,029.5,8.5,0000.0,0007.27,0003.15,0002.45
2023-11-07 09:48:00,SystemResetWarning,0822.7,5.01,000.00,028.1,027.1,000.0,036.4,029.5,8.5,0000.0,0007.29,0003.15,0002.44
2023-11-07 09:49:00,SystemResetWarning,0822.6,5.00,000.00,028.1,027.1,000.0,036.4,029.5,8.5,0000.0,0006.95,0003.13,0002.42
2023-11-07 09:50:00,SystemResetWarning,0822.7,5.00,000.00,028.1,027.1,000.0,036.4,029.5,8.5,0000.0,0005.75,0003.14,0002.42
2023-11-07 09:51:00,SystemResetWarning,0822.7,4.99,000.00,028.1,027.1,000.0,036.4,029.5,8.7,0000.0,0005.92,0003.15,0002.42
2023-11-07 09:52:00,SystemResetWarning,0823.1,4.99,000.00,028.1,027.1,000.0,036.4,029.5,8.8,0000.0,0006.11,0003.17,0002.42
2023-11-07 09:53:00,SystemResetWarning,0823.1,5.01,000.00,028.1,027.1,000.0,036.4,029.5,9.0,0000.0,0006.20,0003.19,0002.45
2023-11-07 09:54:00,SystemResetWarning,0822.7,5.01,000.00,028.1,027.1,000.0,036.5,029.5,9.0,0000.0,0006.03,0003.20,0002.49
2023-11-07 09:55:00,SystemResetWarning,0822.7,4.99,000.00,028.1,027.1,000.0,036.5,029.5,9.1,0000.0,0006.08,0003.24,0002.55
2023-11-07 09:56:00,SystemResetWarning,0822.6,4.99,000.00,028.1,027.1,000.0,036.5,029.5,9.1,0000.0,0006.33,0003.31,0002.62
2023-11-07 09:57:00,SystemResetWarning,0822.7,4.99,000.00,028.1,027.1,000.0,036.5,029.5,9.1,0000.0,0006.69,0003.39,0002.71
2023-11-07 09:58:00,SystemResetWarning,0822.8,5.00,000.00,028.1,027.1,000.0,036.5,029.5,9.1,0000.0,0006.94,0003.42,0002.79
2023-11-07 09:59:00,SystemResetWarning,0822.9,5.00,000.00,028.1,027.1,000.0,036.5,029.5,9.1,0000.0,0007.59,0003.49,0002.88
